JST271 YMML-YMHB

Flight info

Callsign JST271
Flight time 0h 50m
Altitude 33000
Route SUNTI4/16 SUNTI H169 IRSOM V33 TASUM DCT
Aircraft A21N/M-SDE3FGHIRWY/LB1

Departure

Time 2026-04-26 10:34
Airport Melbourne Airport (YMML)

Arrival

Time 2026-04-26 11:25
Airport Hobart International Airport (YMHB)
Time Latitude Longitude Altitude Speed Heading
2026-04-26 10:11 -37.67527 144.84790 442 ft 0 kts 174°
2026-04-26 10:19 -37.67525 144.84790 442 ft 2 kts 174°
2026-04-26 10:19 -37.67510 144.84788 442 ft 2 kts 174°
2026-04-26 10:20 -37.67495 144.84786 442 ft 2 kts 173°
2026-04-26 10:20 -37.67481 144.84790 442 ft 2 kts 225°
2026-04-26 10:20 -37.67477 144.84799 442 ft 0 kts 259°
2026-04-26 10:20 -37.67476 144.84808 442 ft 1 kts 264°
2026-04-26 10:21 -37.67476 144.84811 442 ft 0 kts 262°
2026-04-26 10:26 -37.67476 144.84808 442 ft 0 kts 262°
2026-04-26 10:26 -37.67478 144.84792 442 ft 2 kts 260°
2026-04-26 10:26 -37.67483 144.84758 442 ft 5 kts 261°
2026-04-26 10:26 -37.67489 144.84708 442 ft 6 kts 261°
2026-04-26 10:27 -37.67496 144.84651 442 ft 6 kts 262°
2026-04-26 10:27 -37.67489 144.84592 442 ft 7 kts 289°
2026-04-26 10:27 -37.67473 144.84528 442 ft 8 kts 286°
2026-04-26 10:27 -37.67471 144.84456 442 ft 8 kts 261°
2026-04-26 10:28 -37.67477 144.84380 442 ft 9 kts 271°
2026-04-26 10:28 -37.67446 144.84314 442 ft 9 kts 332°
2026-04-26 10:28 -37.67382 144.84303 442 ft 9 kts 354°
2026-04-26 10:28 -37.67315 144.84291 442 ft 10 kts 351°
2026-04-26 10:29 -37.67244 144.84277 442 ft 10 kts 351°
2026-04-26 10:29 -37.67163 144.84261 442 ft 12 kts 351°
2026-04-26 10:29 -37.67076 144.84245 442 ft 13 kts 352°
2026-04-26 10:29 -37.66980 144.84227 442 ft 14 kts 351°
2026-04-26 10:30 -37.66879 144.84207 442 ft 15 kts 351°
2026-04-26 10:30 -37.66772 144.84189 442 ft 15 kts 352°
2026-04-26 10:30 -37.66660 144.84168 442 ft 16 kts 351°
2026-04-26 10:30 -37.66546 144.84146 442 ft 16 kts 351°
2026-04-26 10:31 -37.66430 144.84125 442 ft 17 kts 351°
2026-04-26 10:31 -37.66310 144.84102 442 ft 17 kts 351°
2026-04-26 10:31 -37.66189 144.84079 442 ft 17 kts 351°
2026-04-26 10:31 -37.66065 144.84056 442 ft 18 kts 352°
2026-04-26 10:32 -37.65940 144.84033 442 ft 18 kts 352°
2026-04-26 10:32 -37.65815 144.84010 442 ft 18 kts 352°
2026-04-26 10:32 -37.65688 144.83987 442 ft 18 kts 351°
2026-04-26 10:32 -37.65582 144.83911 442 ft 16 kts 300°
2026-04-26 10:33 -37.65572 144.83784 442 ft 14 kts 262°
2026-04-26 10:33 -37.65587 144.83656 442 ft 14 kts 260°
2026-04-26 10:33 -37.65610 144.83580 442 ft 6 kts 211°
2026-04-26 10:33 -37.65658 144.83560 442 ft 8 kts 180°
2026-04-26 10:34 -37.65957 144.83612 442 ft 86 kts 172°
2026-04-26 10:34 -37.66810 144.83765 443 ft 158 kts 172°
2026-04-26 10:34 -37.68044 144.83974 724 ft 192 kts 172°
2026-04-26 10:34 -37.69331 144.84207 1691 ft 189 kts 172°
2026-04-26 10:35 -37.70564 144.84438 2738 ft 183 kts 173°
2026-04-26 10:35 -37.71874 144.84680 3399 ft 199 kts 173°
2026-04-26 10:35 -37.73285 144.84941 3971 ft 215 kts 173°
2026-04-26 10:35 -37.74837 144.85228 4422 ft 238 kts 173°
2026-04-26 10:36 -37.76531 144.85541 4998 ft 258 kts 174°
2026-04-26 10:36 -37.78306 144.85873 5841 ft 266 kts 174°
2026-04-26 10:36 -37.80143 144.86221 6808 ft 269 kts 174°
2026-04-26 10:36 -37.81965 144.86565 7700 ft 273 kts 175°
2026-04-26 10:37 -37.83838 144.87013 8568 ft 280 kts 170°
2026-04-26 10:37 -37.85709 144.87740 9412 ft 287 kts 164°
2026-04-26 10:37 -37.87591 144.88666 10234 ft 294 kts 162°
2026-04-26 10:37 -37.89521 144.89656 10824 ft 309 kts 162°
2026-04-26 10:38 -37.91541 144.90695 11268 ft 327 kts 162°
2026-04-26 10:38 -37.93718 144.91815 11698 ft 346 kts 162°
2026-04-26 10:38 -37.95990 144.92981 12093 ft 365 kts 162°
2026-04-26 10:38 -37.98396 144.94218 12461 ft 383 kts 161°
2026-04-26 10:39 -38.00915 144.95514 12987 ft 396 kts 161°
2026-04-26 10:39 -38.03461 144.96829 13738 ft 400 kts 162°
2026-04-26 10:39 -38.06040 144.98161 14490 ft 405 kts 162°
2026-04-26 10:39 -38.08683 144.99524 15203 ft 410 kts 162°
2026-04-26 10:40 -38.11307 145.00876 15882 ft 414 kts 162°
2026-04-26 10:40 -38.13988 145.02257 16555 ft 419 kts 163°
2026-04-26 10:40 -38.16701 145.03656 17217 ft 424 kts 163°
2026-04-26 10:40 -38.19409 145.05052 17846 ft 428 kts 163°
2026-04-26 10:41 -38.22203 145.06494 18473 ft 433 kts 163°
2026-04-26 10:41 -38.24958 145.07918 19075 ft 437 kts 163°
2026-04-26 10:41 -38.27784 145.09378 19659 ft 441 kts 163°
2026-04-26 10:41 -38.30635 145.10854 20232 ft 445 kts 164°
2026-04-26 10:42 -38.33499 145.12337 20789 ft 449 kts 164°
2026-04-26 10:42 -38.36430 145.13856 21336 ft 453 kts 164°
2026-04-26 10:42 -38.39354 145.15373 21875 ft 457 kts 164°
2026-04-26 10:42 -38.42284 145.16895 22381 ft 461 kts 164°
2026-04-26 10:43 -38.45254 145.18439 22877 ft 465 kts 164°
2026-04-26 10:43 -38.48250 145.19998 23367 ft 469 kts 165°
2026-04-26 10:43 -38.51307 145.21533 23850 ft 470 kts 167°
2026-04-26 10:43 -38.54359 145.22911 24301 ft 472 kts 168°
2026-04-26 10:44 -38.57451 145.24265 24726 ft 476 kts 168°
2026-04-26 10:44 -38.60613 145.25641 25143 ft 479 kts 168°
2026-04-26 10:44 -38.63742 145.27006 25543 ft 483 kts 168°
2026-04-26 10:44 -38.66938 145.28406 25936 ft 486 kts 168°
2026-04-26 10:45 -38.70139 145.29816 26449 ft 486 kts 168°
2026-04-26 10:45 -38.73303 145.31213 26997 ft 484 kts 168°
2026-04-26 10:45 -38.76465 145.32613 27521 ft 484 kts 169°
2026-04-26 10:45 -38.79615 145.34009 28010 ft 483 kts 169°
2026-04-26 10:46 -38.82790 145.35414 28493 ft 483 kts 169°
2026-04-26 10:46 -38.85943 145.36812 28959 ft 483 kts 169°
2026-04-26 10:46 -38.89100 145.38211 29417 ft 483 kts 169°
2026-04-26 10:46 -38.92282 145.39624 29857 ft 483 kts 169°
2026-04-26 10:47 -38.95438 145.41026 30299 ft 483 kts 169°
2026-04-26 10:47 -38.98613 145.42439 30749 ft 482 kts 170°
2026-04-26 10:47 -39.01795 145.43855 31159 ft 483 kts 170°
2026-04-26 10:47 -39.04961 145.45267 31533 ft 484 kts 170°
2026-04-26 10:48 -39.08122 145.46677 31904 ft 484 kts 170°
2026-04-26 10:48 -39.11313 145.48100 32247 ft 486 kts 170°
2026-04-26 10:48 -39.14472 145.49512 32555 ft 487 kts 170°
2026-04-26 10:48 -39.17703 145.50952 32836 ft 489 kts 170°
2026-04-26 10:49 -39.20903 145.52383 33096 ft 491 kts 170°
2026-04-26 10:49 -39.24113 145.53821 33201 ft 493 kts 170°
2026-04-26 10:49 -39.30584 145.56728 33207 ft 494 kts 170°
2026-04-26 10:50 -39.35972 145.59151 33208 ft 494 kts 170°
2026-04-26 10:50 -39.43525 145.62556 33208 ft 493 kts 170°
2026-04-26 10:51 -39.53205 145.66933 33205 ft 494 kts 169°
2026-04-26 10:52 -39.59679 145.69865 33209 ft 495 kts 169°
2026-04-26 10:52 -39.66185 145.72823 33207 ft 495 kts 169°
2026-04-26 10:53 -39.72637 145.75758 33207 ft 495 kts 169°
2026-04-26 10:53 -39.79104 145.78705 33202 ft 495 kts 169°
2026-04-26 10:54 -39.88863 145.83165 33189 ft 496 kts 169°
2026-04-26 10:54 -39.95453 145.86191 33177 ft 495 kts 169°
2026-04-26 10:55 -40.02038 145.89215 33165 ft 495 kts 169°
2026-04-26 10:55 -40.08575 145.92230 33158 ft 495 kts 169°
2026-04-26 10:56 -40.15067 145.95242 33155 ft 496 kts 169°
2026-04-26 10:56 -40.21533 145.98251 33152 ft 496 kts 169°
2026-04-26 10:57 -40.28001 146.01263 33153 ft 496 kts 169°
2026-04-26 10:57 -40.34502 146.04297 33153 ft 497 kts 169°
2026-04-26 10:58 -40.41050 146.07364 33152 ft 496 kts 169°
2026-04-26 10:58 -40.47552 146.10413 33153 ft 496 kts 169°
2026-04-26 10:59 -40.54027 146.13454 33152 ft 496 kts 169°
2026-04-26 10:59 -40.60497 146.16502 33153 ft 497 kts 169°
2026-04-26 11:00 -40.66994 146.19571 33154 ft 497 kts 169°
2026-04-26 11:00 -40.73514 146.22650 33154 ft 497 kts 169°
2026-04-26 11:01 -40.79989 146.25714 33153 ft 497 kts 169°
2026-04-26 11:01 -40.86554 146.28827 33154 ft 497 kts 169°
2026-04-26 11:02 -40.93095 146.31937 33152 ft 497 kts 169°
2026-04-26 11:02 -40.99674 146.35074 33154 ft 496 kts 169°
2026-04-26 11:03 -41.06265 146.38222 33155 ft 493 kts 168°
2026-04-26 11:03 -41.09553 146.39793 33022 ft 493 kts 168°
2026-04-26 11:03 -41.13011 146.41452 32748 ft 489 kts 168°
2026-04-26 11:04 -41.16334 146.43094 32337 ft 489 kts 166°
2026-04-26 11:04 -41.19612 146.44968 31748 ft 489 kts 162°
2026-04-26 11:04 -41.22919 146.47020 30991 ft 491 kts 161°
2026-04-26 11:04 -41.26168 146.49080 30195 ft 492 kts 161°
2026-04-26 11:05 -41.29277 146.51059 29420 ft 494 kts 161°
2026-04-26 11:05 -41.32481 146.53095 28585 ft 496 kts 161°
2026-04-26 11:05 -41.35713 146.55145 27714 ft 498 kts 161°
2026-04-26 11:05 -41.38987 146.57222 26838 ft 498 kts 161°
2026-04-26 11:06 -41.42310 146.59329 25896 ft 500 kts 161°
2026-04-26 11:06 -41.45699 146.61482 25241 ft 494 kts 161°
2026-04-26 11:06 -41.48844 146.63486 24688 ft 487 kts 161°
2026-04-26 11:06 -41.51878 146.65420 24130 ft 481 kts 160°
2026-04-26 11:07 -41.54861 146.67319 23546 ft 477 kts 160°
2026-04-26 11:07 -41.57825 146.69208 22963 ft 471 kts 160°
2026-04-26 11:07 -41.60768 146.71086 22384 ft 465 kts 160°
2026-04-26 11:07 -41.63781 146.73009 21784 ft 461 kts 160°
2026-04-26 11:08 -41.66702 146.74878 21194 ft 457 kts 160°
2026-04-26 11:08 -41.69628 146.76761 20601 ft 453 kts 160°
2026-04-26 11:08 -41.72494 146.78613 20024 ft 449 kts 160°
2026-04-26 11:08 -41.75338 146.80452 19459 ft 445 kts 160°
2026-04-26 11:09 -41.78262 146.82347 18874 ft 440 kts 160°
2026-04-26 11:09 -41.81126 146.84204 18300 ft 436 kts 160°
2026-04-26 11:09 -41.83958 146.86040 17724 ft 432 kts 160°
2026-04-26 11:09 -41.86763 146.87862 17145 ft 428 kts 160°
2026-04-26 11:10 -41.89526 146.89658 16575 ft 424 kts 160°
2026-04-26 11:10 -41.92307 146.91466 16005 ft 420 kts 159°
2026-04-26 11:10 -41.94968 146.93199 15459 ft 416 kts 159°
2026-04-26 11:10 -41.97674 146.94961 14910 ft 411 kts 159°
2026-04-26 11:11 -42.00236 146.96635 14612 ft 402 kts 159°
2026-04-26 11:11 -42.02752 146.98282 14379 ft 395 kts 159°
2026-04-26 11:11 -42.05320 146.99962 14142 ft 389 kts 159°
2026-04-26 11:11 -42.07822 147.01599 13922 ft 384 kts 159°
2026-04-26 11:12 -42.10249 147.03188 13720 ft 380 kts 159°
2026-04-26 11:12 -42.12627 147.04746 13535 ft 377 kts 159°
2026-04-26 11:12 -42.14972 147.06284 13365 ft 374 kts 158°
2026-04-26 11:12 -42.17531 147.07710 13182 ft 368 kts 167°
2026-04-26 11:13 -42.20020 147.08508 12717 ft 365 kts 174°
2026-04-26 11:13 -42.22636 147.09125 12207 ft 363 kts 175°
2026-04-26 11:13 -42.25128 147.09685 11736 ft 361 kts 174°
2026-04-26 11:13 -42.27581 147.10248 11272 ft 359 kts 174°
2026-04-26 11:14 -42.30020 147.10825 10811 ft 357 kts 173°
2026-04-26 11:14 -42.32451 147.11410 10456 ft 350 kts 173°
2026-04-26 11:14 -42.34820 147.11987 10115 ft 342 kts 173°
2026-04-26 11:14 -42.37129 147.12550 9716 ft 337 kts 173°
2026-04-26 11:15 -42.39453 147.13118 9320 ft 331 kts 173°
2026-04-26 11:15 -42.41699 147.13664 8966 ft 325 kts 173°
2026-04-26 11:15 -42.43882 147.14197 8603 ft 320 kts 173°
2026-04-26 11:15 -42.46049 147.14726 8225 ft 314 kts 173°
2026-04-26 11:16 -42.48171 147.15245 7690 ft 308 kts 172°
2026-04-26 11:16 -42.50278 147.15759 7168 ft 303 kts 172°
2026-04-26 11:16 -42.52312 147.16301 6662 ft 298 kts 167°
2026-04-26 11:16 -42.54217 147.17259 6200 ft 288 kts 156°
2026-04-26 11:17 -42.55995 147.18466 5625 ft 282 kts 153°
2026-04-26 11:17 -42.57692 147.19685 5117 ft 273 kts 153°
2026-04-26 11:17 -42.59336 147.20860 4685 ft 263 kts 153°
2026-04-26 11:17 -42.60936 147.21945 4360 ft 254 kts 155°
2026-04-26 11:18 -42.62483 147.23051 4271 ft 242 kts 147°
2026-04-26 11:18 -42.63806 147.24411 4265 ft 235 kts 139°
2026-04-26 11:18 -42.64977 147.25848 4243 ft 225 kts 136°
2026-04-26 11:18 -42.66072 147.27284 4333 ft 206 kts 135°
2026-04-26 11:19 -42.67024 147.28567 4278 ft 183 kts 134°
2026-04-26 11:19 -42.67883 147.29738 4109 ft 168 kts 134°
2026-04-26 11:19 -42.68698 147.30855 3905 ft 164 kts 134°
2026-04-26 11:19 -42.69478 147.31924 3695 ft 156 kts 134°
2026-04-26 11:20 -42.70229 147.32953 3484 ft 153 kts 134°
2026-04-26 11:20 -42.70731 147.33640 3346 ft 153 kts 134°
2026-04-26 11:20 -42.71724 147.34998 3075 ft 151 kts 134°
2026-04-26 11:20 -42.72462 147.36005 2874 ft 151 kts 134°
2026-04-26 11:21 -42.73198 147.37010 2675 ft 150 kts 134°
2026-04-26 11:21 -42.73933 147.38011 2476 ft 149 kts 134°
2026-04-26 11:21 -42.74667 147.39011 2278 ft 148 kts 134°
2026-04-26 11:21 -42.75397 147.40006 2082 ft 147 kts 134°
2026-04-26 11:22 -42.76117 147.40984 1888 ft 147 kts 134°
2026-04-26 11:22 -42.76834 147.41960 1695 ft 146 kts 134°
2026-04-26 11:22 -42.77554 147.42938 1501 ft 145 kts 134°
2026-04-26 11:22 -42.78262 147.43903 1309 ft 144 kts 134°
2026-04-26 11:23 -42.78977 147.44875 1116 ft 144 kts 134°
2026-04-26 11:23 -42.79676 147.45824 927 ft 143 kts 134°
2026-04-26 11:23 -42.80376 147.46776 738 ft 142 kts 134°
2026-04-26 11:23 -42.81076 147.47728 548 ft 142 kts 134°
2026-04-26 11:24 -42.81776 147.48679 360 ft 141 kts 134°
2026-04-26 11:24 -42.82463 147.49612 185 ft 140 kts 134°
2026-04-26 11:24 -42.83152 147.50548 40 ft 139 kts 134°
2026-04-26 11:24 -42.83778 147.51410 22 ft 108 kts 136°
2026-04-26 11:25 -42.84189 147.51962 26 ft 58 kts 135°
2026-04-26 11:25 -42.84354 147.52184 28 ft 6 kts 138°
2026-04-26 11:25 -42.84369 147.52202 28 ft 6 kts 135°
2026-04-26 11:25 -42.84425 147.52278 28 ft 15 kts 136°
2026-04-26 11:26 -42.84519 147.52338 29 ft 15 kts 174°
2026-04-26 11:26 -42.84561 147.52405 30 ft 10 kts 71°
2026-04-26 11:26 -42.84508 147.52393 29 ft 11 kts 308°
2026-04-26 11:26 -42.84454 147.52313 28 ft 11 kts 314°
2026-04-26 11:27 -42.84395 147.52229 28 ft 12 kts 314°
2026-04-26 11:27 -42.84329 147.52138 28 ft 15 kts 315°
2026-04-26 11:27 -42.84236 147.52016 27 ft 21 kts 317°
2026-04-26 11:27 -42.84121 147.51863 25 ft 25 kts 315°
2026-04-26 11:28 -42.83997 147.51694 25 ft 24 kts 316°
2026-04-26 11:28 -42.83879 147.51532 23 ft 23 kts 315°
2026-04-26 11:28 -42.83783 147.51399 22 ft 14 kts 305°
2026-04-26 11:28 -42.83803 147.51277 22 ft 13 kts 227°
2026-04-26 11:29 -42.83858 147.51196 25 ft 9 kts 244°
2026-04-26 11:29 -42.83840 147.51115 25 ft 9 kts 311°
2026-04-26 11:29 -42.83787 147.51042 24 ft 12 kts 316°
2026-04-26 11:29 -42.83720 147.50954 24 ft 14 kts 316°
2026-04-26 11:30 -42.83680 147.50844 25 ft 10 kts 250°
2026-04-26 11:30 -42.83697 147.50781 25 ft 10 kts 268°
2026-04-26 11:30 -42.83678 147.50693 25 ft 6 kts 262°
2026-04-26 11:30 -42.83685 147.50642 26 ft 1 kts 256°